Temp
9 9 9 9 9 9 10 12 11 11 11 12 12 11 11 10 10 10 9 9 8 8 8 9 8 8 8 8 8 7 7 7 7 7 7 6 7 7 7 6 7 7 7 7 7 7 7 7 7
8 8 8 8 8 9 11 11 11 11 11 11 11 11 10 10 10 9 9 9 9 9 8 9 8 8 8 8 7 7 6 7 6 6 6 7 6 6 7 7 7 7 7 7 7 7 7 7 7
8 8 7 7 8 10 11 11 10 10 11 11 11 11 11 10 9 9 9 9 8 8 8 8 8 7 7 7 7 6 6 6 6 6 6 5 5 6 6 7 7 7 7 7 7 7 7 7 7
7 7 7 7 9 11 11 11 10 10 10 11 11 10 10 9 9 9 9 8 8 8 8 8 7 7 7 7 7 6 6 6 6 5 5 5 5 5 5 6 7 7 7 7 7 7 7 7 7
7 7 7 7 9 11 11 10 9 10 10 10 10 10 9 9 9 9 8 8 8 8 7 8 7 7 7 7 7 6 5 5 5 5 4 5 4 5 5 6 6 7 6 7 6 7 7 7 7
6 6 5 7 9 11 11 11 10 10 10 10 10 10 9 9 9 8 8 8 8 8 7 7 7 7 7 6 6 5 5 5 4 5 5 3 3 4 5 5 6 6 6 6 6 6 6 6 7
7 7 6 7 8 10 11 10 9 10 10 11 11 10 9 9 8 8 8 8 8 8 7 7 7 7 7 6 6 6 6 5 4 4 3 3 2 3 4 5 6 6 6 6 6 6 6 6 6
7 6 6 6 8 9 11 9 9 10 11 10 10 9 9 9 9 9 8 8 8 7 7 7 7 7 7 6 6 5 5 4 4 2 3 4 3 2 2 5 5 5 5 5 5 5 5 6 6
6 5 5 6 7 9 10 8 8 9 10 10 10 9 9 9 9 8 8 8 7 7 7 7 7 7 6 6 5 5 4 4 4 3 3 2 2 2 2 4 5 4 5 5 5 5 5 6 6
6 5 5 8 8 8 9 7 7 8 9 9 9 9 9 9 8 8 8 7 8 7 7 7 7 7 6 5 4 4 4 4 4 4 3 3 1 2 3 4 4 4 4 5 4 4 5 5 5
6 6 7 7 7 7 9 8 8 7 8 9 9 9 9 8 8 8 8 8 8 7 7 7 7 7 6 6 3 3 4 4 4 4 3 2 2 3 3 4 4 4 4 4 4 4 4 5 5
6 6 6 7 7 7 7 7 7 8 8 8 9 8 8 8 8 8 8 8 8 7 7 7 7 7 6 5 4 2 3 4 3 3 3 2 2 2 4 4 4 5 4 4 5 4 4 4 5
5 6 6 5 6 6 6 7 7 8 8 8 8 8 8 8 8 8 8 8 8 7 7 6 7 6 6 5 4 2 2 3 3 2 3 2 3 3 4 4 4 4 4 4 4 3 3 4 5
5 5 5 5 5 6 6 6 6 7 8 8 8 9 8 8 8 8 8 8 8 7 6 6 6 6 6 5 4 3 2 3 3 2 2 3 3 4 4 4 4 4 4 4 3 3 3 3 4
3 4 4 5 6 5 6 6 6 7 8 8 8 8 8 8 8 8 8 8 8 7 7 6 6 6 5 5 4 2 1 2 2 1 2 2 3 3 3 3 3 4 3 3 3 2 2 2 3
3 3 3 5 5 5 5 6 7 7 8 8 8 8 8 8 8 8 8 8 8 7 7 6 6 5 5 4 3 3 2 2 2 2 2 2 2 3 3 2 3 3 3 2 2 2 2 2 3
2 3 4 4 5 5 5 6 7 7 8 8 8 8 9 9 8 8 8 8 7 7 7 6 5 4 4 3 3 3 2 3 3 3 2 3 2 2 2 2 2 1 2 2 2 2 2 2 3
2 3 3 4 5 5 5 5 7 7 8 8 8 8 9 9 9 9 8 8 7 7 7 6 5 3 3 3 3 2 2 2 3 3 2 2 2 2 2 2 2 1 2 2 2 2 2 1 2
1 2 3 3 4 4 4 4 6 7 7 8 9 9 8 9 9 8 8 8 7 7 7 6 5 5 3 3 2 2 2 3 3 2 2 2 2 2 2 2 2 2 2 2 2 1 1 1 1
1 1 2 2 4 3 4 4 6 7 8 9 9 9 9 9 8 8 8 8 7 7 7 7 6 5 4 3 3 3 2 2 3 3 3 3 3 2 2 2 1 1 0 1 2 1 2 1 1
0 0 1 2 3 3 4 4 6 8 8 9 9 9 9 9 9 8 8 8 7 7 7 7 6 6 5 4 3 2 2 2 3 3 3 3 2 2 2 1 1 1 -0 0 1 1 1 2 2
-1 0 1 1 1 2 4 2 5 7 7 7 9 9 9 9 8 9 8 8 7 7 7 7 6 5 5 4 3 4 3 3 3 2 2 2 2 2 2 1 1 1 -0 -0 0 0 -0 1 1
-1 -0 -0 1 1 1 2 2 4 6 7 8 9 9 9 9 9 9 9 8 7 7 7 7 7 6 5 4 4 3 3 3 2 2 2 2 2 2 1 1 1 1 0 -1 -1 -1 -1 -0 0
-2 -1 -0 -0 0 0 2 2 4 5 7 8 9 9 9 9 9 9 9 7 7 7 7 7 7 7 6 5 4 4 3 3 3 2 2 2 2 1 1 1 1 1 1 0 -1 -0 -0 -1 -1
-3 -2 -1 -1 -0 0 4 3 4 7 8 8 9 10 10 10 9 9 9 8 8 7 7 7 7 7 6 5 5 4 3 3 3 3 3 2 2 1 1 1 0 1 0 0 -0 -0 -2 -2 -1
-2 -2 -1 0 -0 2 4 4 5 6 7 9 9 9 11 10 9 9 9 8 7 7 7 7 7 7 7 6 5 4 3 3 2 3 3 3 2 1 1 1 1 0 0 0 -0 -1 -2 -1 -1
-2 -2 -1 -1 -1 -1 2 5 6 7 8 8 9 9 10 9 9 9 9 8 7 7 7 7 7 7 7 6 6 5 4 3 3 3 3 3 2 0 1 0 1 1 -0 -1 -1 -1 -1 -1 -2
-2 -2 -2 -2 -0 0 3 4 6 8 8 9 9 9 10 9 9 9 8 8 7 7 7 7 7 7 7 6 6 6 5 4 3 3 3 3 2 1 1 1 0 1 0 -0 -2 -2 -2 -2 -1
-2 -3 -2 -2 -1 1 1 3 3 6 6 8 9 9 9 9 9 8 8 8 7 7 7 7 7 7 6 6 6 6 6 6 5 4 3 3 2 1 1 1 1 1 1 1 0 -0 -1 -1 -1
-2 -2 -2 -1 -1 -0 1 2 1 4 6 7 8 8 8 8 8 8 8 7 7 7 7 7 7 7 6 6 6 6 6 6 6 5 5 5 4 3 2 1 1 0 1 0 0 0 -0 -0 -0
Height
3136 3135 3134 3135 3140 3133 3129 3129 3128 3128 3129 3128 3128 3129 3129 3128 3131 3133 3128 3129 3131 3133 3133 3133 3133 3133 3133 3132 3133 3134 3135 3136 3136 3137 3138 3141 3141 3141 3142 3144 3144 3146 3148 3149 3151 3152 3153 3154 3155
3133 3133 3133 3133 3134 3129 3127 3127 3124 3125 3126 3126 3127 3127 3125 3124 3127 3128 3127 3129 3129 3130 3130 3130 3129 3129 3129 3129 3129 3131 3133 3133 3134 3135 3138 3139 3140 3141 3142 3143 3144 3146 3147 3149 3150 3151 3152 3153 3155
3129 3130 3131 3130 3128 3124 3124 3125 3126 3126 3125 3124 3124 3124 3122 3121 3123 3125 3125 3127 3127 3128 3128 3127 3126 3125 3125 3125 3126 3127 3130 3131 3130 3131 3135 3137 3137 3140 3140 3142 3144 3145 3146 3148 3149 3150 3151 3152 3154
3124 3126 3127 3124 3122 3121 3121 3123 3125 3125 3123 3121 3120 3119 3118 3118 3120 3123 3123 3122 3123 3124 3124 3123 3121 3120 3120 3121 3122 3123 3126 3127 3128 3129 3131 3134 3136 3137 3138 3140 3142 3143 3144 3147 3148 3149 3150 3152 3155
3121 3121 3120 3116 3116 3117 3117 3120 3120 3123 3122 3118 3117 3116 3116 3116 3117 3119 3120 3119 3118 3120 3119 3118 3117 3115 3115 3116 3117 3118 3121 3121 3120 3122 3121 3129 3131 3134 3136 3138 3140 3142 3143 3145 3146 3147 3150 3153 3156
3117 3117 3113 3110 3112 3114 3116 3118 3117 3114 3117 3116 3113 3112 3112 3113 3114 3116 3116 3117 3116 3115 3114 3113 3112 3111 3110 3111 3112 3112 3111 3112 3113 3114 3116 3116 3122 3127 3132 3136 3138 3140 3141 3142 3144 3146 3149 3151 3156
3112 3111 3106 3108 3110 3110 3113 3115 3113 3111 3113 3114 3112 3109 3110 3110 3110 3112 3113 3113 3112 3112 3110 3108 3107 3106 3106 3106 3106 3104 3107 3101 3088 3109 3115 3113 3112 3114 3127 3133 3135 3138 3139 3141 3142 3145 3147 3150 3155
3109 3106 3102 3103 3107 3103 3110 3112 3110 3113 3111 3110 3110 3107 3107 3109 3109 3109 3110 3110 3108 3107 3106 3103 3102 3101 3100 3101 3100 3099 3102 3099 3099 3103 3110 3109 3111 3117 3125 3130 3132 3134 3138 3140 3142 3144 3145 3150 3155
3104 3099 3094 3100 3102 3099 3107 3107 3107 3112 3110 3107 3106 3104 3105 3105 3105 3106 3106 3106 3105 3104 3100 3099 3096 3095 3094 3093 3093 3092 3095 3096 3097 3101 3103 3108 3110 3114 3123 3127 3128 3133 3138 3139 3140 3142 3144 3149 3153
3096 3090 3089 3096 3099 3098 3099 3103 3103 3105 3106 3104 3101 3101 3100 3099 3100 3100 3101 3101 3100 3099 3097 3093 3091 3088 3084 3083 3085 3087 3089 3093 3095 3097 3099 3101 3101 3111 3119 3124 3127 3130 3135 3138 3139 3140 3143 3148 3151
3089 3081 3089 3091 3094 3096 3093 3095 3098 3099 3099 3101 3100 3098 3096 3095 3095 3096 3097 3096 3094 3094 3092 3088 3085 3083 3079 3077 3077 3080 3085 3087 3088 3092 3093 3097 3101 3108 3114 3120 3124 3127 3132 3135 3137 3139 3141 3146 3151
3081 3083 3085 3086 3089 3090 3088 3091 3089 3092 3094 3097 3096 3094 3092 3091 3091 3092 3091 3091 3090 3089 3086 3083 3079 3077 3074 3073 3073 3075 3079 3083 3083 3086 3090 3095 3095 3103 3110 3116 3121 3126 3129 3133 3136 3138 3141 3145 3149
3075 3077 3080 3081 3082 3083 3085 3081 3084 3084 3089 3091 3092 3089 3087 3087 3086 3087 3087 3085 3085 3083 3081 3078 3075 3072 3071 3069 3070 3071 3075 3078 3079 3079 3079 3085 3093 3101 3107 3114 3119 3123 3128 3132 3134 3136 3139 3143 3148
3071 3072 3073 3074 3075 3077 3079 3076 3079 3077 3083 3085 3086 3085 3082 3082 3082 3083 3083 3082 3081 3079 3076 3073 3071 3068 3067 3066 3066 3068 3070 3073 3074 3072 3069 3076 3089 3098 3107 3113 3118 3122 3126 3130 3133 3135 3138 3141 3146
3067 3065 3066 3065 3065 3068 3074 3068 3067 3073 3075 3076 3079 3080 3078 3078 3076 3078 3078 3078 3077 3074 3071 3068 3066 3064 3062 3061 3062 3062 3064 3067 3068 3070 3069 3076 3088 3098 3105 3111 3116 3120 3123 3127 3130 3133 3136 3139 3144
3062 3062 3057 3058 3063 3065 3070 3057 3060 3066 3069 3070 3071 3074 3074 3073 3072 3074 3074 3075 3073 3070 3067 3064 3061 3059 3057 3056 3057 3059 3060 3062 3065 3069 3071 3079 3089 3097 3103 3110 3114 3117 3120 3124 3128 3131 3134 3138 3142
3056 3052 3053 3052 3060 3063 3064 3052 3055 3061 3063 3062 3064 3066 3068 3067 3068 3069 3071 3071 3070 3067 3064 3060 3056 3053 3051 3050 3052 3054 3056 3059 3063 3069 3073 3077 3086 3094 3101 3106 3109 3112 3118 3122 3125 3128 3132 3136 3139
3049 3050 3050 3049 3055 3058 3056 3049 3048 3051 3054 3053 3055 3059 3061 3061 3062 3064 3065 3066 3066 3063 3060 3055 3051 3047 3046 3047 3047 3049 3051 3055 3060 3066 3070 3077 3083 3091 3097 3102 3105 3109 3115 3120 3122 3126 3130 3135 3137
3047 3047 3044 3046 3051 3051 3049 3046 3042 3040 3043 3044 3045 3051 3053 3054 3057 3059 3059 3061 3061 3059 3056 3053 3047 3043 3044 3044 3044 3044 3048 3053 3056 3063 3070 3075 3081 3088 3093 3098 3101 3106 3111 3115 3119 3123 3127 3130 3132
3042 3043 3039 3040 3045 3048 3043 3037 3034 3034 3036 3036 3037 3042 3046 3048 3051 3053 3055 3056 3056 3054 3052 3051 3046 3043 3043 3044 3042 3044 3048 3052 3056 3062 3068 3075 3078 3084 3089 3095 3098 3100 3106 3110 3115 3118 3123 3126 3129
3036 3038 3038 3038 3041 3039 3038 3027 3026 3026 3026 3028 3032 3038 3041 3042 3044 3048 3050 3052 3052 3051 3049 3048 3047 3044 3043 3043 3043 3043 3046 3050 3053 3058 3063 3070 3075 3081 3085 3089 3093 3097 3101 3106 3111 3116 3119 3124 3128
3029 3035 3034 3035 3040 3034 3035 3022 3017 3021 3021 3021 3028 3032 3034 3036 3039 3044 3045 3047 3048 3048 3047 3046 3046 3045 3042 3043 3045 3046 3046 3048 3053 3058 3062 3066 3071 3076 3081 3084 3089 3094 3097 3102 3108 3112 3116 3121 3125
3021 3030 3031 3032 3033 3030 3025 3025 3004 3015 3014 3014 3019 3024 3025 3029 3032 3037 3040 3043 3045 3045 3044 3043 3044 3044 3043 3043 3044 3046 3048 3050 3054 3057 3061 3064 3068 3072 3077 3081 3085 3090 3093 3098 3102 3108 3112 3116 3121
3020 3023 3026 3029 3029 3021 3015 3020 3000 3007 3010 3011 3013 3017 3019 3022 3027 3033 3037 3040 3041 3042 3042 3041 3041 3042 3041 3042 3044 3046 3047 3050 3052 3055 3058 3061 3065 3069 3073 3077 3082 3088 3090 3093 3098 3103 3107 3112 3117
3017 3021 3022 3025 3023 3008 3010 3012 2999 3001 3006 3008 3009 3010 3012 3015 3020 3027 3031 3035 3037 3039 3040 3039 3039 3039 3040 3041 3042 3045 3047 3048 3051 3054 3056 3058 3061 3065 3070 3075 3081 3084 3086 3090 3093 3098 3101 3107 3111
3013 3016 3014 3012 3011 3004 3006 2997 2995 3000 3001 3004 3005 3003 3004 3008 3016 3023 3028 3031 3034 3036 3038 3038 3038 3038 3038 3038 3039 3041 3044 3046 3049 3051 3055 3058 3060 3064 3070 3074 3078 3080 3084 3088 3090 3094 3098 3103 3107
3008 3010 3014 3011 3009 3006 2995 2993 2993 2996 2997 2997 2999 2999 3000 3006 3014 3020 3025 3028 3030 3033 3036 3037 3036 3036 3037 3037 3038 3038 3039 3043 3045 3049 3052 3055 3058 3062 3066 3070 3072 3076 3079 3083 3087 3090 3094 3098 3101
3006 3009 3010 3010 3008 3001 2993 2991 2990 2990 2993 2992 2994 2997 3000 3006 3012 3017 3021 3025 3028 3030 3033 3035 3036 3036 3036 3037 3038 3038 3038 3039 3042 3045 3049 3052 3055 3058 3061 3065 3069 3072 3076 3078 3081 3084 3088 3091 3093
3005 3003 3003 3005 3005 3000 2999 2990 2991 2990 2989 2987 2992 2996 2998 3003 3009 3014 3018 3022 3025 3028 3030 3033 3034 3035 3037 3037 3038 3039 3039 3039 3040 3042 3045 3049 3052 3054 3056 3059 3064 3069 3072 3074 3075 3077 3080 3082 3084
2998 2997 2999 3000 3001 3001 3000 2993 2988 2989 2988 2988 2992 2993 2996 3001 3006 3011 3016 3020 3023 3024 3027 3030 3032 3034 3036 3037 3038 3039 3040 3040 3042 3044 3046 3047 3049 3051 3054 3057 3059 3062 3063 3065 3067 3069 3072 3074 3075
Wind_Speed
14 11 10 8 6 9 16 9 13 5 10 14 13 9 13 11 13 12 13 9 7 10 15 21 22 18 14 14 17 20 23 23 22 21 17 19 19 18 19 19 18 17 16 15 15 16 16 16 15
15 12 12 10 9 13 13 5 9 9 16 10 8 12 14 14 13 13 16 16 18 21 24 25 22 20 16 16 19 20 25 27 24 23 19 15 17 16 16 17 18 17 16 16 16 17 17 16 15
15 14 14 9 16 23 13 5 2 3 8 10 12 15 16 15 10 13 14 16 19 22 25 22 23 22 20 19 20 23 26 29 29 23 22 25 19 17 16 17 18 18 17 16 18 18 18 16 16
17 17 16 19 21 19 18 15 5 8 12 15 18 13 11 11 10 12 16 20 22 25 24 23 24 22 23 21 21 27 29 28 30 24 27 24 23 20 19 18 19 20 19 18 17 17 17 16 15
19 20 24 22 24 19 16 13 17 16 27 20 13 11 9 14 17 19 18 22 26 27 23 27 25 21 22 24 24 28 32 33 33 40 28 30 29 23 22 21 20 22 20 20 19 18 16 14 13
21 24 22 28 26 18 16 11 16 20 29 21 15 15 14 15 18 19 18 20 23 25 28 27 25 21 21 23 25 30 37 42 42 44 35 36 30 29 24 21 21 22 22 22 21 18 16 16 14
26 29 32 30 26 25 16 10 20 15 25 27 24 19 18 17 16 15 18 23 24 28 28 26 25 22 21 22 26 33 35 39 40 33 39 27 31 31 26 24 22 23 23 23 21 19 18 17 15
26 31 37 33 27 32 17 12 17 20 25 21 18 22 20 16 18 22 24 24 27 23 26 24 24 24 24 24 27 31 31 39 37 35 37 18 34 32 26 24 23 23 23 23 21 20 20 17 15
26 35 39 35 33 34 18 18 8 14 22 24 21 24 17 18 21 23 25 28 26 31 27 25 22 23 26 28 28 30 28 28 30 30 36 33 41 32 26 25 25 24 24 25 24 22 21 18 17
31 41 43 36 33 30 26 24 22 23 19 22 22 19 20 17 17 24 25 27 32 26 26 22 22 25 26 25 30 28 25 26 28 27 28 27 36 33 25 24 24 28 26 25 24 24 23 20 18
33 44 39 37 33 29 31 28 20 27 24 22 26 24 20 16 15 18 24 30 28 26 26 21 23 23 21 19 24 27 26 24 24 24 26 23 39 34 29 28 27 29 29 28 27 26 24 21 19
35 35 37 36 32 31 33 27 30 26 23 21 23 18 18 18 20 22 28 32 29 25 24 20 21 22 20 17 19 28 27 24 20 21 24 29 36 34 33 32 33 29 30 29 29 28 24 23 20
33 32 32 33 30 28 26 30 31 29 22 21 27 25 21 20 22 25 29 32 28 26 23 19 21 21 19 17 16 21 24 22 20 24 26 39 47 35 32 31 34 33 31 33 30 28 26 24 19
31 31 32 27 27 28 32 34 34 32 24 27 28 30 31 30 30 25 29 29 27 25 23 19 20 21 18 18 18 19 21 22 20 21 16 45 48 35 33 27 29 32 32 32 30 30 28 24 19
30 33 34 35 32 35 34 43 43 32 31 31 32 28 28 26 29 28 29 30 27 22 21 19 20 21 19 19 19 24 23 24 23 17 19 42 42 37 30 26 24 29 31 32 31 31 30 25 22
28 31 37 39 34 35 35 43 41 31 29 33 36 32 31 33 33 30 28 27 24 22 20 19 21 21 20 19 19 22 25 23 20 18 23 40 38 34 31 28 20 28 33 34 35 32 28 26 23
30 36 37 39 32 32 29 42 40 34 33 33 32 32 32 34 41 34 29 27 23 22 20 20 21 22 19 15 18 21 24 24 22 22 32 43 36 36 31 26 18 33 35 37 35 32 29 27 26
22 27 28 34 33 25 31 38 36 35 36 39 34 31 28 25 23 24 28 25 23 22 19 20 23 19 12 11 13 16 23 26 26 24 25 38 34 24 23 23 28 32 37 37 34 32 30 28 27
35 29 31 31 27 20 30 33 33 34 33 38 31 35 31 28 24 25 25 24 20 21 18 19 21 8 8 9 14 14 24 26 29 28 23 41 43 29 21 29 29 30 42 39 34 34 31 29 28
28 33 38 36 29 25 29 38 38 31 31 30 26 30 29 32 29 24 19 19 19 20 17 16 11 8 6 5 5 16 24 24 36 31 29 33 40 34 29 25 28 39 42 40 36 35 33 31 29
28 28 31 28 29 33 29 42 37 29 23 26 26 25 26 36 34 25 16 18 16 18 16 13 5 8 7 5 5 12 20 27 26 33 37 33 36 32 28 27 29 35 43 43 40 37 35 32 33
33 28 26 27 23 23 14 13 31 28 27 23 29 30 34 28 38 26 16 16 13 16 15 12 7 7 7 7 5 7 15 26 31 31 26 28 30 27 31 25 31 39 41 40 40 37 32 30 31
34 28 26 26 24 24 30 11 42 29 29 23 22 19 28 28 36 29 17 17 14 14 14 11 6 4 8 8 9 8 9 14 31 39 35 31 30 28 26 26 31 37 39 44 45 44 38 31 31
21 26 28 23 19 12 30 10 31 34 30 29 29 26 19 34 33 28 18 18 18 15 13 9 6 2 5 9 11 10 9 12 15 26 33 33 32 24 27 32 27 30 37 41 42 40 31 30 32
18 10 6 6 7 9 16 16 34 26 25 30 24 16 23 34 34 29 20 15 16 14 13 8 5 2 1 4 10 14 12 15 12 13 22 27 27 30 23 34 27 34 40 37 30 35 27 31 35
26 22 6 5 4 8 23 13 27 30 36 33 19 16 21 31 35 24 18 11 11 13 13 8 5 3 2 2 2 8 15 16 16 16 18 15 17 23 24 28 27 25 35 41 37 35 32 35 38
13 20 24 6 5 4 7 11 29 34 27 25 23 19 13 32 28 22 17 9 9 15 12 9 6 5 4 3 2 0 6 11 13 18 18 15 16 23 28 22 24 32 30 39 41 41 42 41 41
24 8 12 8 3 3 5 7 11 16 21 25 19 24 21 23 23 22 11 8 12 16 14 10 6 5 5 4 4 5 4 5 11 17 15 16 14 17 21 26 25 30 29 37 45 47 48 48 52
13 26 10 7 7 2 3 2 17 8 11 16 27 22 19 23 22 17 10 7 8 15 16 12 8 6 4 4 4 4 6 7 6 7 11 13 15 16 14 24 28 29 29 22 28 32 40 48 48
15 19 19 9 5 11 3 8 14 10 4 17 19 20 19 22 19 16 12 8 5 12 18 15 12 8 6 5 5 3 3 4 6 7 8 10 10 12 14 20 22 26 25 27 32 36 33 34 39
Wind_Direction
252 252 256 253 257 252 266 278 302 173 214 256 263 273 277 262 257 252 260 263 262 273 295 305 304 293 273 254 236 238 224 215 203 201 203 210 196 200 206 207 206 202 197 193 195 192 185 183 180
247 248 250 249 248 249 278 15 323 219 221 223 251 280 284 272 268 256 272 284 288 288 297 301 301 286 263 247 234 231 231 219 206 202 206 223 204 201 207 206 199 196 193 196 195 192 187 183 177
234 240 241 240 245 248 263 145 44 250 247 252 262 274 278 274 271 277 270 279 280 288 295 302 301 288 265 248 234 225 231 225 209 205 210 206 200 203 205 208 202 193 193 197 192 190 188 182 181
224 233 234 230 242 262 264 255 2 224 250 267 266 276 258 254 256 262 271 277 283 295 301 305 302 284 265 248 237 227 226 225 227 230 208 209 207 206 205 204 205 197 189 190 189 189 191 187 183
226 234 234 236 249 268 267 271 286 286 259 264 270 278 257 276 277 276 274 283 290 301 296 305 303 295 267 245 236 227 228 217 223 219 198 210 206 206 209 204 201 198 186 183 184 190 192 191 182
220 231 234 239 252 259 261 258 299 283 242 256 262 263 255 265 262 263 270 278 291 298 298 300 297 287 270 252 245 232 226 226 214 212 220 206 205 196 200 205 195 193 188 183 183 188 190 189 179
231 235 240 246 253 257 229 252 324 225 237 263 270 262 270 260 241 260 278 290 293 297 298 298 293 283 270 260 247 239 235 229 203 210 216 218 218 185 187 195 189 189 189 183 182 184 193 191 177
237 241 243 242 248 256 225 267 341 245 266 267 256 255 254 254 266 281 284 289 286 302 305 296 289 280 269 263 252 247 243 253 268 269 215 212 213 200 186 184 180 183 188 183 182 187 194 189 175
237 237 244 243 244 253 246 265 322 267 262 264 276 258 263 264 267 273 273 276 285 298 301 295 284 280 277 263 253 249 242 243 250 256 267 238 210 191 184 182 179 188 190 184 182 186 194 189 177
231 238 243 252 253 254 254 263 273 297 266 269 254 261 256 261 269 267 273 285 298 296 296 292 291 296 294 268 245 243 241 241 246 243 261 271 192 186 183 181 181 184 192 185 183 188 195 189 182
240 246 254 254 255 253 256 259 260 283 291 294 261 262 252 267 277 282 294 298 296 295 296 291 295 299 296 270 250 231 237 241 242 235 238 242 188 188 184 191 190 183 185 186 184 190 195 191 189
246 250 252 259 256 258 256 263 273 270 279 290 269 276 279 279 284 289 291 295 296 295 297 290 294 301 299 270 247 222 228 235 239 231 231 207 204 185 187 194 193 190 186 190 190 190 196 197 192
245 257 253 255 255 248 255 255 266 271 268 280 272 271 277 281 286 287 291 296 295 295 297 288 289 298 294 277 237 220 220 229 233 237 251 222 201 183 185 189 197 195 199 191 187 189 196 202 191
249 253 254 250 250 252 263 265 270 265 267 268 272 272 277 277 279 275 283 293 293 295 295 286 284 292 289 271 242 229 223 232 229 254 195 193 185 186 187 186 190 194 197 199 195 192 196 199 197
241 248 247 239 235 248 258 269 262 264 262 267 261 264 270 267 268 274 275 290 293 297 294 283 283 287 281 270 242 235 227 228 221 240 196 184 179 188 190 195 194 196 191 190 188 192 196 196 200
238 242 253 244 243 250 260 267 253 256 262 265 257 254 259 263 263 270 268 291 296 299 298 287 287 288 276 263 240 236 240 224 211 214 189 172 185 188 189 192 213 209 197 192 191 195 194 196 205
248 252 248 256 247 259 267 268 265 266 260 259 263 255 260 261 256 259 265 281 298 294 300 293 295 285 270 243 245 242 230 208 200 197 194 187 192 186 193 202 221 202 202 195 195 196 197 199 204
251 247 256 260 254 260 261 267 269 262 263 258 260 260 249 259 251 266 266 274 293 293 305 301 301 286 236 233 250 232 227 212 201 202 182 192 186 186 192 212 206 199 207 202 200 199 200 200 206
256 251 255 255 254 261 253 281 270 268 276 260 253 251 241 250 254 260 264 271 282 298 311 309 310 241 210 243 276 222 203 203 198 188 192 189 200 195 227 207 211 226 215 208 202 202 202 201 202
254 258 259 270 255 281 283 285 274 266 255 261 232 228 239 246 246 248 256 265 275 297 310 317 298 206 212 255 267 195 191 206 200 194 188 195 211 214 211 226 232 213 210 205 203 201 204 204 205
245 260 262 267 270 272 284 283 270 250 262 236 229 238 244 245 242 243 255 257 266 295 306 317 237 209 217 247 289 207 195 184 198 201 191 213 210 206 215 226 216 211 210 212 208 208 208 211 213
258 245 259 263 274 282 262 281 265 243 258 261 233 243 247 245 239 241 242 245 256 292 300 309 288 223 215 213 200 186 189 196 187 192 206 200 203 216 219 221 206 211 202 208 207 208 213 213 217
249 250 253 250 276 290 273 269 268 258 255 248 240 250 244 235 236 232 241 234 246 280 288 297 295 215 198 201 200 184 179 197 200 211 209 214 216 213 220 212 210 214 208 211 214 216 206 217 212
246 248 241 262 280 263 255 230 271 260 256 250 238 248 270 230 233 226 229 225 242 268 271 281 281 252 170 191 207 208 210 203 204 206 209 213 209 208 201 207 212 221 225 219 217 210 204 215 218
227 219 215 243 222 244 255 223 245 256 262 248 253 273 259 222 222 218 222 237 253 263 250 261 251 265 141 180 204 204 208 208 205 214 209 200 200 208 208 206 212 229 217 216 221 225 220 215 223
219 207 233 202 207 256 240 234 241 261 273 257 247 276 247 217 211 218 227 229 239 236 230 234 215 178 130 116 212 203 207 208 212 208 198 215 199 194 209 212 228 223 228 228 228 227 225 226 226
197 215 227 288 274 281 251 259 259 251 260 256 231 246 219 201 209 219 216 228 217 218 218 214 205 182 155 125 107 168 202 198 200 197 202 205 190 191 195 207 229 231 235 231 227 227 228 227 231
225 215 203 206 242 248 273 260 244 219 259 242 227 204 202 199 205 206 208 222 200 209 211 208 199 191 177 155 125 112 112 170 185 199 208 216 214 205 201 215 213 219 231 234 234 231 230 237 240
263 230 203 199 227 304 306 263 17 212 304 189 192 204 199 193 192 199 206 204 196 207 207 210 201 188 190 182 167 140 126 129 160 184 200 210 215 215 210 211 221 212 219 223 235 243 242 237 238
279 223 227 213 205 233 306 285 11 171 66 151 179 178 188 194 195 192 205 206 214 208 209 214 214 209 202 205 192 176 161 143 145 164 174 192 201 211 214 221 222 226 222 224 241 246 245 250 252